Content
SEND FEEDBACK

Daily
Averages
Monthly
Summary
United States of America

WILMINGTON, NORTH CAROLINA


Home > North America > United States > North Carolina
Elevation: 72 feet     Latitude: 34 16N     Longitude: 077 54W

WEATHER
 
SELECT A DAY
Number of Records: 214,110;   Date Range: 1/1/95 - 12/19/14
 
SHARE

PRINT THIS DATA

[ ← Previous Day ]
WEATHER ALMANAC - SEPTEMBER 16, 2013
[ Next Day → ]
[ °C ]   °F
Weather ElementAverageHighLow
Temperature75.3 °F87.1 °F (12:53 pm)68 °F (3:53 am)
Dewpoint70 °F73 °F (8:53 am)66 °F (5:53 am)
Humidity84.7 %100 % (9:25 pm)53 % (12:53 pm)
Barometer30.08 in30.14 in (1:53 am)30.04 in (2:53 pm)
Wind Speed3.4 mph11.5 mph (3:39 pm)
Weather ElementAverage
Visibility8.6 mi
Wind DirectionE (95 °)

Weather ElementTotal
Precipitation0.44 in
Cooling Degree Days12.6 (Base 65)
Growing Degree Days27.6 (Base 50)
Averaged from 36 records on September 16, 2013
WEATHER CONDITIONS BREAKOUT
WIND DIRECTION BREAKOUT
WEATHER BY HOUR - SEPTEMBER 16, 2013
[ °C ]   °F
Local TimeTemperatureDewpointHumidityBarometerVisibilityWind DirectionWind SpeedGust SpeedPrecipitationEventsConditions
1:53 AM70.0 °F68.0 °F93 %30.14 in8.0 miCalm0.01 inClear
2:53 AM69.1 °F66.9 °F93 %30.13 in8.0 miCalm0.02 inClear
3:53 AM68.0 °F66.9 °F96 %30.12 in9.0 miCalm0.01 inClear
4:53 AM69.1 °F66.9 °F93 %30.11 in10.0 miCalm0.01 inMostly Cloudy
5:53 AM68.0 °F66.0 °F93 %30.12 in10.0 miCalm0.01 inClear
6:53 AM68.0 °F66.0 °F93 %30.12 in10.0 miCalmPartly Cloudy
7:53 AM71.1 °F68.0 °F90 %30.12 in10.0 miCalmClear
8:53 AM79.0 °F73.0 °F82 %30.13 in10.0 miCalmScattered Clouds
9:53 AM82.9 °F72.0 °F69 %30.12 in10.0 miVariable5.8 mphClear
10:53 AM86.0 °F71.1 °F61 %30.12 in10.0 miSouth (180°)6.9 mphScattered Clouds
11:53 AM86.0 °F70.0 °F59 %30.11 in10.0 miSW (230°)3.5 mphMostly Cloudy
12:53 PM87.1 °F68.0 °F53 %30.08 in10.0 miWest (260°)9.2 mphMostly Cloudy
1:53 PM80.1 °F70.0 °F71 %30.07 in10.0 miSW (220°)9.2 mph0.00 inRainLight Rain
2:53 PM86.0 °F72.0 °F63 %30.04 in10.0 miSouth (190°)9.2 mph0.00 inMostly Cloudy
3:14 PM84.2 °F71.6 °F66 %30.05 in10.0 miSW (220°)6.9 mphThunderstormMostly Cloudy
3:39 PM78.8 °F68.0 °F69 %30.04 in10.0 miNE (40°)11.5 mphOvercast
3:53 PM79.0 °F69.1 °F72 %30.05 in10.0 miNNE (30°)8.1 mphMostly Cloudy
4:33 PM75.2 °F69.8 °F83 %30.04 in10.0 miEast (100°)4.6 mph0.02 inThunderstormOvercast
4:53 PM73.9 °F71.1 °F91 %30.04 in10.0 miCalm0.02 inOvercast
5:01 PM73.4 °F71.6 °F94 %30.05 in7.0 miSSW (200°)4.6 mph0.01 inRain-ThunderstormRain
5:17 PM73.4 °F71.6 °F94 %30.04 in2.5 miCalm0.07 inRain-ThunderstormHeavy Rain
5:27 PM75.2 °F69.8 °F83 %30.04 in9.0 miCalm0.08 inRainLight Rain
5:38 PM75.2 °F71.6 °F89 %30.04 in10.0 miCalm0.08 inThunderstormMostly Cloudy
5:53 PM75.0 °F71.1 °F87 %30.05 in10.0 miCalm0.08 inMostly Cloudy
6:12 PM75.2 °F71.6 °F89 %30.07 in10.0 miNorth (10°)4.6 mphThunderstormMostly Cloudy
6:53 PM75.0 °F72.0 °F90 %30.07 in10.0 miSouth (190°)3.5 mph0.02 inThunderstormOvercast
7:01 PM75.2 °F71.6 °F89 %30.07 in10.0 miCalmMostly Cloudy
7:41 PM73.4 °F71.6 °F94 %30.07 in9.0 miSW (220°)3.5 mphPartly Cloudy
7:53 PM73.9 °F72.0 °F93 %30.07 in7.0 miCalmClear
8:53 PM73.0 °F71.1 °F93 %30.09 in5.0 miCalmClear
9:14 PM73.4 °F71.6 °F94 %30.09 in1.8 miCalmClear
9:25 PM71.6 °F71.6 °F100 %30.09 in3.0 miNW (310°)3.5 mphClear
9:53 PM72.0 °F70.0 °F93 %30.09 in5.0 miNW (320°)3.5 mphClear
10:53 PM71.1 °F70.0 °F96 %30.11 in9.0 miNW (320°)3.5 mphClear
11:06 PM71.6 °F69.8 °F94 %30.12 in6.0 miNorth (360°)10.4 mphScattered Clouds
11:53 PM71.1 °F66.9 °F87 %30.13 in10.0 miNNE (20°)9.2 mphScattered Clouds
Hourly data recorded from KILM, located miles away from Wilmington, North Carolina







STORIES FROM OUR PARTNERS